Rotterdam, Netherlands

12:19 AM CEST on August 28, 2016 (GMT +0200)
Rotterdam

Weather History for EHRD - May, 2011

Change the Weather History Date:

Thursday, May 19, 2011

  Actual Average Record
Temperature  
Mean Temperature 56 °F -  
Max Temperature 63 °F 65 °F 77 °F (2014)
Min Temperature 50 °F 49 °F 36 °F (2013)
Degree Days  
Heating Degree Days 8    
Growing Degree Days 6 (Base 50)    
Moisture  
Dew Point 49 °F    
Average Humidity 79    
Maximum Humidity 100    
Minimum Humidity 47    
Precipitation  
Precipitation 0.02 in - - ()
Sea Level Pressure  
Sea Level Pressure 30.04 in    
Wind  
Wind Speed 5 mph ()    
Max Wind Speed 14 mph    
Max Gust Speed -    
Visibility 6.4 miles    
Events Rain    
Averages and records for this station are not official NWS values.
T = Trace of Precipitation, MM = Missing Value Source: Averaged Metar Reports

Daily Weather History Graph

Daily Weather History Graph

Search for Another Location

Airport or City:

Trip Planner

Search our weather history database for the weather conditions in past years. The results will help you decide how hot, cold, wet, or windy it might be!

Date:

Astronomy

May. 19, 2011 Rise Set
Actual Time 5:43 AM CEST 9:34 PM CEST
Civil Twilight 5:00 AM CEST 10:18 PM CEST
Nautical Twilight 4:00 AM CEST 11:18 PM CEST
Astronomical Twilight 2:13 AM CEST 1:14 AM CEST
Moon No Moon Rise 7:02 AM CEST (5/19)
Length of Visible Light 17h 17m
Length of Day
15h 51m
Waning Gibbous, 95% of the Moon is Illuminated
May 19
Waning Gibbous
May 24
Last Quarter
Jun 1
New
Jun 9
First Quarter
Jun 15
Full

Hourly Weather History & Observations

Time (CEST) Temp. Dew Point Humidity Pressure Visibility Wind Dir Wind Speed Gust Speed Precip Events Conditions
12:25 AM 57.2 °F 53.6 °F 88% 29.98 in 6.2 mi WSW 6.9 mph - N/A   Overcast
12:55 AM 57.2 °F 53.6 °F 88% 29.98 in 6.2 mi West 13.8 mph - N/A   Overcast
1:25 AM 57.2 °F 53.6 °F 88% 29.98 in 6.2 mi West 9.2 mph - N/A   Overcast
1:55 AM 57.2 °F 53.6 °F 88% 29.98 in 6.2 mi WSW 5.8 mph - N/A   Overcast
2:00 AM 56 °F 54 °F 90% 29.99 in 9 mi WSW 6.7 mph - -   Overcast
2:25 AM 55.4 °F 53.6 °F 94% 29.98 in 4.3 mi West 6.9 mph - N/A   Overcast
2:55 AM 55.4 °F 53.6 °F 94% 29.98 in 1.4 mi West 5.8 mph - N/A   Overcast
3:25 AM 55.4 °F 53.6 °F 94% 29.98 in 1.1 mi WNW 3.5 mph - N/A   Overcast
3:55 AM 55.4 °F 53.6 °F 94% 29.98 in 1.3 mi Variable 2.3 mph - N/A   Overcast
4:25 AM 53.6 °F 53.6 °F 100% 29.98 in 1.4 mi North 5.8 mph - N/A   Overcast
4:55 AM 53.6 °F 51.8 °F 94% 29.98 in 1.4 mi NNE 6.9 mph - N/A   Overcast
5:00 AM 53 °F 52 °F 97% 30.01 in 2 mi North 6.7 mph - -   Mist
5:25 AM 51.8 °F 51.8 °F 100% 29.98 in 1.3 mi NNE 9.2 mph - N/A   Drizzle
5:55 AM 51.8 °F 51.8 °F 100% 30.01 in - North 6.9 mph - N/A Rain Light Rain Showers
6:25 AM 51.8 °F 50.0 °F 94% 30.01 in 6.2 mi North 6.9 mph - N/A Rain Light Rain
6:55 AM 51.8 °F 50.0 °F 94% 30.01 in 5.0 mi Variable 2.3 mph - N/A   Overcast
7:25 AM 51.8 °F 50.0 °F 94% 30.01 in 6.2 mi East 3.5 mph - N/A   Overcast
7:55 AM 51.8 °F 50.0 °F 94% 30.01 in 6.2 mi East 3.5 mph - N/A   Light Drizzle
8:00 AM 52 °F 50 °F 91% 30.04 in 7 mi 2.2 mph - - Rain Light Rain Showers
8:25 AM 51.8 °F 50.0 °F 94% 30.04 in 6.2 mi NW 3.5 mph - N/A Rain Light Rain
8:55 AM 51.8 °F 50.0 °F 94% 30.04 in 6.2 mi North 4.6 mph - N/A   Drizzle
9:25 AM 51.8 °F 48.2 °F 88% 30.04 in 6.2 mi NNE 5.8 mph - N/A Rain Light Rain
9:55 AM 51.8 °F 50.0 °F 94% 30.06 in 5.6 mi ENE 4.6 mph - N/A   Drizzle
10:25 AM 53.6 °F 50.0 °F 88% 30.06 in 6.2 mi East 3.5 mph - N/A   Light Drizzle
10:55 AM 53.6 °F 50.0 °F 88% 30.06 in 6.2 mi ENE 3.5 mph - N/A Rain Light Rain
11:00 AM 54 °F 51 °F 86% 30.08 in 7 mi NE 4.5 mph - - Rain Light Rain Showers
11:25 AM 55.4 °F 50.0 °F 82% 30.06 in 6.2 mi ENE 3.5 mph - N/A Rain Light Rain
11:55 AM 55.4 °F 50.0 °F 82% 30.06 in 6.2 mi NNE 3.5 mph - N/A Rain Light Rain
12:25 PM 57.2 °F 51.8 °F 82% 30.06 in 6.2 mi NE 3.5 mph - N/A   Mostly Cloudy
12:55 PM 57.2 °F 50.0 °F 77% 30.06 in 6.2 mi NE 5.8 mph - N/A   Partly Cloudy
1:25 PM 57.2 °F 48.2 °F 72% 30.06 in 6.2 mi NNE 4.6 mph - N/A   Overcast
1:55 PM 59.0 °F 50.0 °F 72% 30.09 in 6.2 mi North 4.6 mph - N/A   Overcast
2:00 PM 59 °F 48 °F 58% 30.09 in 16 mi North 4.5 mph - -   Partly Cloudy
2:25 PM 60.8 °F 48.2 °F 63% 30.06 in 6.2 mi NNE 4.6 mph - N/A   Partly Cloudy
2:55 PM 60.8 °F 46.4 °F 59% 30.06 in 6.2 mi NNE 4.6 mph - N/A   Scattered Clouds
3:25 PM 62.6 °F 46.4 °F 55% 30.06 in 6.2 mi Variable 4.6 mph - N/A   Mostly Cloudy
3:55 PM 62.6 °F 46.4 °F 55% 30.06 in 6.2 mi NNW 3.5 mph - N/A   Scattered Clouds
4:25 PM 62.6 °F 48.2 °F 59% 30.06 in 6.2 mi NNW 4.6 mph - N/A   Scattered Clouds
4:55 PM 60.8 °F 46.4 °F 59% 30.06 in 6.2 mi North 5.8 mph - N/A   Overcast
5:00 PM 62 °F 47 °F 47% 30.08 in 15 mi NNE 6.7 mph - -   Overcast
5:25 PM 62.6 °F 48.2 °F 59% 30.06 in 6.2 mi North 5.8 mph - N/A   Overcast
5:55 PM 60.8 °F 46.4 °F 59% 30.06 in 6.2 mi North 6.9 mph - N/A   Scattered Clouds
6:25 PM 62.6 °F 46.4 °F 55% 30.06 in 6.2 mi North 5.8 mph - N/A   Overcast
6:55 PM 60.8 °F 46.4 °F 59% 30.06 in 6.2 mi North 6.9 mph - N/A   Mostly Cloudy
7:25 PM 60.8 °F 46.4 °F 59% 30.06 in 6.2 mi North 5.8 mph - N/A   Unknown
7:55 PM 59.0 °F 44.6 °F 59% 30.06 in 6.2 mi North 6.9 mph - N/A   Partly Cloudy
8:00 PM 58 °F 46 °F 54% 30.08 in 18 mi North 6.7 mph - -  
8:25 PM 57.2 °F 46.4 °F 67% 30.06 in 6.2 mi North 6.9 mph - N/A   Partly Cloudy
8:55 PM 55.4 °F 46.4 °F 72% 30.06 in 6.2 mi North 4.6 mph - N/A   Partly Cloudy
9:25 PM 53.6 °F 46.4 °F 77% 30.06 in 6.2 mi North 4.6 mph - N/A   Unknown
9:55 PM 53.6 °F 46.4 °F 77% 30.09 in 6.2 mi North 3.5 mph - N/A   Partly Cloudy
10:25 PM 50.0 °F 44.6 °F 82% 30.09 in 6.2 mi Variable 2.3 mph - N/A   Unknown
10:55 PM 50.0 °F 44.6 °F 82% 30.09 in 6.2 mi NNE 1.2 mph - N/A   Partly Cloudy
11:00 PM 51 °F 46 °F 75% 30.11 in 19 mi Calm Calm - -   Overcast
11:25 PM 51.8 °F 44.6 °F 76% 30.09 in 6.2 mi Variable 2.3 mph - N/A   Scattered Clouds
11:55 PM 51.8 °F 44.6 °F 76% 30.09 in 6.2 mi NNE 2.3 mph - N/A   Partly Cloudy